TimeCST,TemperatureF,Dew PointF,Humidity,Sea Level PressureIn,VisibilityMPH,Wind Direction,Wind SpeedMPH,Gust SpeedMPH,PrecipitationIn,Events,Conditions,WindDirDegrees,DateUTC
12:00 AM,69.8,69.8,100,30.04,6.2,Calm,Calm,-,N/A,,Overcast,0,2012-11-10 06:00:00
1:00 AM,69.8,69.8,100,30.01,6.2,Calm,Calm,-,N/A,,Overcast,0,2012-11-10 07:00:00
2:00 AM,69.8,68.0,94,29.98,6.2,Calm,Calm,-,N/A,,Scattered Clouds,0,2012-11-10 08:00:00
3:00 AM,71.6,69.8,94,29.98,6.2,Calm,Calm,-,N/A,,Mostly Cloudy,0,2012-11-10 09:00:00
4:00 AM,71.6,69.8,94,29.98,6.2,Calm,Calm,-,N/A,,Mostly Cloudy,0,2012-11-10 10:00:00
5:00 AM,69.8,69.8,100,30.01,6.2,Calm,Calm,-,N/A,,Mostly Cloudy,0,2012-11-10 11:00:00
6:00 AM,70,69,94,30.02,5,Calm,Calm,,,,Mist,,2012-11-10 12:00:00
6:00 AM,69.8,68.0,94,30.01,5.0,Calm,Calm,-,N/A,,Overcast,0,2012-11-10 12:00:00
6:10 AM,-9999,-9999,N/A,-9999,5.0,Calm,Calm,-,N/A,,Light Drizzle,0,2012-11-10 12:10:00
7:00 AM,69.8,69.8,100,30.04,4.3,Calm,Calm,-,N/A,,Light Drizzle,0,2012-11-10 13:00:00
8:00 AM,71.6,69.8,94,30.06,5.6,Calm,Calm,-,N/A,,Overcast,0,2012-11-10 14:00:00
9:00 AM,73.4,69.8,88,30.06,6.2,Calm,Calm,-,N/A,,Overcast,0,2012-11-10 15:00:00
10:00 AM,73.4,68.0,83,30.06,5.6,West,6.9,-,N/A,,Light Drizzle,270,2012-11-10 16:00:00
12:00 PM,72,69,87,30.06,4,West,4.6,,,Rain,Drizzle,270,2012-11-10 18:00:00
12:00 PM,71.6,69.8,94,30.04,3.7,West,4.6,-,N/A,,Heavy Drizzle,270,2012-11-10 18:00:00
1:00 PM,71.6,68.0,88,30.01,5.0,West,6.9,-,N/A,,Light Drizzle,270,2012-11-10 19:00:00
2:00 PM,69.8,69.8,100,29.98,3.7,Calm,Calm,-,N/A,,Drizzle,0,2012-11-10 20:00:00
3:00 PM,69.8,68.0,94,29.98,5.0,West,6.9,-,N/A,,Light Drizzle,270,2012-11-10 21:00:00
5:00 PM,69.8,68.0,94,29.98,3.7,West,9.2,-,N/A,,Drizzle,270,2012-11-10 23:00:00
6:00 PM,70,69,94,30.00,25,West,6.9,,,,Overcast,270,2012-11-11 00:00:00
6:00 PM,69.8,50.0,49,29.98,6.2,West,6.9,-,N/A,,Overcast,270,2012-11-11 00:00:00
7:00 PM,-9999,-9999,N/A,30.00,4.3,Calm,Calm,-,N/A,,Heavy Drizzle,0,2012-11-11 01:00:00
8:00 PM,71.6,69.8,94,30.04,6.2,West,9.2,-,N/A,,Overcast,270,2012-11-11 02:00:00
9:00 PM,71.6,69.8,94,30.04,6.2,North,4.6,-,N/A,,Overcast,360,2012-11-11 03:00:00
10:00 PM,69.8,69.8,100,30.04,6.2,NNE,6.9,-,N/A,,Overcast,20,2012-11-11 04:00:00
11:00 PM,69.8,69.8,100,30.04,6.2,Calm,Calm,-,N/A,,Overcast,0,2012-11-11 05:00:00